This demonstration page uses our WeatherBlox Daily Observations layout. Learn more.

40.92945, -100.16068

Hourly Observations for April 6, 2017

Temp ( °F °C ) Dew Point ( °F °C ) Humidity (%) Winds ( mph kmh ) Pressure ( in mb ) Visibility ( mi km ) Precip ( " mm )
12:15 am 00:15 Cloudy 38 3.6 30 -1.1 72 72 ENE 5 7 30.18 1022 10 16.0934 0 0
12:35 am 00:35 Mostly Cloudy 38 3.1 31 -0.7 76 76 NE 5 7 30.21 1023 10 16.0934 0 0
12:55 am 00:55 Partly Cloudy 37 2.9 30 -1 76 76 Calm 30.21 1023 10 16.0934 0 0
1:15 am 01:15 Partly Cloudy 35 1.8 30 -1 82 82 W 3 6 30.24 1024 10 16.0934 0 0
1:35 am 01:35 Partly Cloudy 35 1.7 30 -1 82 82 W 3 6 30.24 1024 10 16.0934 0 0
1:55 am 01:55 Partly Cloudy 35 1.5 30 -1 84 84 WNW 5 7 30.24 1024 10 16.0934 0 0
2:15 am 02:15 Partly Cloudy 34 1.1 30 -1.3 84 84 N 7 11 30.24 1024 10 16.0934 0 0
2:35 am 02:35 Partly Cloudy 36 2 31 -0.6 83 83 N 9 15 30.27 1025 10 16.0934 0 0
2:55 am 02:55 Partly Cloudy 37 2.5 31 -0.5 81 81 N 3 6 30.21 1023 10 16.0934 0 0
3:15 am 03:15 Partly Cloudy 35 1.8 31 -0.6 84 84 W 5 7 30.27 1025 10 16.0934 0 0
3:35 am 03:35 Mostly Cloudy 35 1.9 31 -0.5 84 84 W 7 11 30.27 1025 10 16.0934 0 0
3:55 am 03:55 Mostly Cloudy 36 2.2 31 -0.5 83 83 W 6 9 30.24 1024 10 16.0934 0 0
4:15 am 04:15 Partly Cloudy 35 1.9 30 -0.9 82 82 WNW 6 9 30.27 1025 10 16.0934 0 0
4:35 am 04:35 Mostly Cloudy 35 1.7 31 -0.8 84 84 NNW 3 6 30.27 1025 10 16.0934 0 0
4:55 am 04:55 Cloudy 34 1.2 30 -1 85 85 N 5 7 30.27 1025 10 16.0934 0 0
5:15 am 05:15 Mostly Cloudy 33 0.7 30 -1.3 87 87 NW 6 9 30.27 1025 10 16.0934 0 0
5:35 am 05:35 Mostly Cloudy 33 0.5 29 -1.5 87 87 N 6 9 30.27 1025 10 16.0934 0 0
5:55 am 05:55 Mostly Cloudy 32 0.2 29 -1.6 88 88 NNW 5 7 30.27 1025 10 16.0934 0 0
6:15 am 06:15 Cloudy 33 0.5 30 -1.2 89 89 NNW 5 7 30.3 1026 10 16.0934 0 0
6:35 am 06:35 Cloudy 33 0.7 30 -1 89 89 Calm 30.3 1026 10 16.0934 0 0
6:55 am 06:55 Cloudy 33 0.6 30 -1 89 89 WNW 5 7 30.3 1026 10 16.0934 0 0
7:15 am 07:15 Mostly Cloudy 33 0.5 30 -0.9 90 90 N 3 6 30.3 1026 10 16.0934 0 0
7:35 am 07:35 Partly Cloudy 32 0 29 -1.4 90 90 Calm 30.33 1027 10 16.0934 0 0
7:55 am 07:55 Sunny 32 0.2 30 -0.9 92 92 Calm 30.33 1027 10 16.0934 0 0
8:15 am 08:15 Sunny 34 0.9 31 -0.3 92 92 WNW 3 6 30.33 1027 10 16.0934 0 0
8:35 am 08:35 Sunny 37 2.5 32 0.1 84 84 Calm 30.33 1027 10 16.0934 0 0
8:55 am 08:55 Sunny 38 3.6 33 0.8 82 82 Calm 30.33 1027 10 16.0934 0 0
9:15 am 09:15 Sunny 41 5.2 34 1.1 75 75 Calm 30.33 1027 10 16.0934 0 0
9:35 am 09:35 Sunny 44 6.4 35 1.8 73 73 Calm 30.3 1026 10 16.0934 0 0
9:55 am 09:55 Sunny 46 7.7 35 1.8 67 67 NNE 3 6 30.3 1026 10 16.0934 0 0
10:15 am 10:15 Sunny 48 8.9 35 1.5 60 60 ENE 5 7 30.3 1026 10 16.0934 0 0
10:35 am 10:35 Sunny 49 9.7 33 0.3 52 52 ENE 5 7 30.27 1025 10 16.0934 0 0
10:55 am 10:55 Sunny 50 9.8 31 -0.7 48 48 ENE 5 7 30.27 1025 10 16.0934 0 0
11:15 am 11:15 Sunny 51 10.4 32 -0.1 48 48 ESE 3 6 30.27 1025 10 16.0934 0 0
11:35 am 11:35 Sunny 51 10.6 31 -0.3 47 47 E 5 7 30.27 1025 10 16.0934 0 0
11:55 am 11:55 Sunny 52 10.9 31 -0.6 45 45 ENE 6 9 30.27 1025 10 16.0934 0 0
12:15 pm 12:15 Sunny 53 11.5 32 0 45 45 Calm 30.27 1025 10 16.0934 0 0
12:35 pm 12:35 Sunny 54 12.1 33 0.4 45 45 E 6 9 30.27 1025 10 16.0934 0 0
12:55 pm 12:55 Sunny 54 12.2 33 0.3 44 44 ESE 5 7 30.27 1025 10 16.0934 0 0
1:15 pm 13:15 Sunny 54 12.4 32 -0.2 42 42 E 3 6 30.24 1024 10 16.0934 0 0
1:35 pm 13:35 Sunny 55 13 32 0 41 41 SSE 5 7 30.24 1024 10 16.0934 0 0
1:55 pm 13:55 Sunny 56 13.4 31 -0.4 39 39 E 5 7 30.24 1024 10 16.0934 0 0
2:15 pm 14:15 Sunny 56 13.4 31 -0.7 38 38 Calm 30.21 1023 10 16.0934 0 0
2:35 pm 14:35 Partly Cloudy 57 13.8 31 -0.8 37 37 SSW 6 9 30.21 1023 10 16.0934 0 0
2:55 pm 14:55 Partly Cloudy 58 14.5 32 -0.2 37 37 SW 5 7 30.21 1023 10 16.0934 0 0
3:15 pm 15:15 Partly Cloudy 58 14.2 30 -1.1 35 35 Calm 30.21 1023 10 16.0934 0 0
3:35 pm 15:35 Mostly Cloudy 59 14.8 31 -0.8 35 35 Calm 30.18 1022 10 16.0934 0 0
3:55 pm 15:55 Partly Cloudy 60 15.5 32 -0.1 35 35 W 5 7 30.15 1021 10 16.0934 0 0
4:15 pm 16:15 Sunny 59 15.2 29 -1.4 32 32 NW 10 17 30.15 1021 10 16.0934 0 0
4:35 pm 16:35 Sunny 59 15 29 -1.6 32 32 Calm 30.15 1021 10 16.0934 0 0
4:55 pm 16:55 Partly Cloudy 60 15.8 29 -1.7 30 30 W 6 9 30.15 1021 10 16.0934 0 0
5:15 pm 17:15 Sunny 60 15.5 27 -2.7 29 29 ENE 3 6 30.12 1020 10 16.0934 0 0
5:35 pm 17:35 Sunny 60 15.8 29 -1.8 30 30 Calm 30.12 1020 10 16.0934 0 0
5:55 pm 17:55 Sunny 60 15.7 28 -2.3 29 29 Calm 30.12 1020 10 16.0934 0 0
6:15 pm 18:15 Sunny 60 15.5 28 -2.3 30 30 ENE 3 6 30.12 1020 10 16.0934 0 0
6:35 pm 18:35 Sunny 60 15.5 29 -1.8 31 31 Calm 30.12 1020 10 16.0934 0 0
6:55 pm 18:55 Sunny 60 15.5 28 -2.2 30 30 Calm 30.12 1020 10 16.0934 0 0
7:15 pm 19:15 Sunny 59 14.8 30 -1.1 34 34 SE 5 7 30.12 1020 10 16.0934 0 0
7:35 pm 19:35 Sunny 57 14 29 -1.5 35 35 SE 6 9 30.15 1021 10 16.0934 0 0
7:55 pm 19:55 Sunny 55 13 30 -1.2 38 38 SE 8 13 30.12 1020 10 16.0934 0 0
8:15 pm 20:15 Clear 54 12.2 29 -1.5 39 39 ESE 6 9 30.12 1020 10 16.0934 0 0
8:35 pm 20:35 Clear 53 11.6 29 -1.5 40 40 ESE 7 11 30.12 1020 10 16.0934 0 0
8:55 pm 20:55 Clear 51 10.6 30 -1 45 45 SE 8 13 30.18 1022 10 16.0934 0 0
9:15 pm 21:15 Clear 49 9.7 31 -0.6 49 49 SE 7 11 30.18 1022 10 16.0934 0 0
9:35 pm 21:35 Clear 48 8.8 31 -0.3 53 53 ESE 8 13 30.18 1022 10 16.0934 0 0
9:55 pm 21:55 Clear 49 9.5 31 -0.5 50 50 SE 8 13 30.18 1022 10 16.0934 0 0
10:15 pm 22:15 Clear 48 8.7 32 -0.2 54 54 ESE 10 17 30.18 1022 10 16.0934 0 0
10:35 pm 22:35 Clear 47 8.4 31 -0.5 54 54 SE 9 15 30.18 1022 10 16.0934 0 0
10:55 pm 22:55 Clear 45 7.4 32 -0.2 59 59 SE 10 17 30.21 1023 10 16.0934 0 0
11:15 pm 23:15 Clear 45 7.4 31 -0.5 58 58 SE 9 15 30.21 1023 10 16.0934 0 0
11:35 pm 23:35 Clear 45 7.2 31 -0.5 58 58 SE 9 15 30.21 1023 10 16.0934 0 0
11:55 pm 23:55 Clear 45 7 30 -0.9 58 58 SE 9 15 30.21 1023 10 16.0934 0 0

Powered by AerisWeather